Simultaneous Nadir Overpasses (SNOs) Predictions

Prediction of SNOs between GOES-17 and TERRA Satellite Orbit:

Table of predicted SNOs for the next 14.0 days since TLE Epoch: 2/6/2021
Index Date Time (GOES-17) GOES-17 Lat,Lon TERRA Lat,Lon Distance(km) Time Diff (sec)
1 02/07/2021 19:24:17 0.02,-137.22 -0.62,-134.10 354.26 80
2 02/08/2021 07:48:21 -0.02,-137.20 -0.48,-139.29 238.45 80
3 02/10/2021 07:36:08 -0.01,-137.17 0.14,-136.33 95.13 80
4 02/10/2021 19:54:44 0.01,-137.18 0.90,-141.50 490.24 80
5 02/12/2021 07:23:56 -0.01,-137.15 0.82,-133.38 428.70 80
6 02/12/2021 19:42:31 0.01,-137.16 0.28,-138.54 156.59 80
7 02/14/2021 19:32:58 0.01,-137.13 -0.34,-135.58 176.99 80
8 02/15/2021 07:51:41 -0.01,-137.11 -0.82,-140.76 415.94 80
9 02/17/2021 07:39:28 -0.01,-137.08 -0.19,-137.80 83.02 80
10 02/19/2021 07:29:55 -0.01,-137.04 0.44,-134.84 249.21 80
11 02/19/2021 19:48:31 0.00,-137.04 0.61,-140.01 336.71 80
